Location: Deuil
(48.9767°N, 2.3272°E)
Time: 03:18:13
(UTC+00:00)

Cosmos 2360 Rocket - Pass Details

Date: 23 May 2022
Orbit: 832 x 846 km, 71.0° (Epoch: 03 July)

Event Time Altitude Azimuth Distance (km) Brightness Sun altitude
Exits shadow 22:28:56 27° 131° (SE) 1,560 3.1 -18.1°
Maximum altitude 22:30:20 30° 105° (ESE) 1,453 3.1 -18.2°
Drops below altitude 10° 22:35:10 10° 45° (NE) 2,464 5.0 -18.5°
Sets 22:37:52 0° 36° (NE) 3,406 5.9 -18.6°
